This is the latest recevied weather packets stored in our database for station/object N6GPM. If no packets are shown the sender has not sent any weather packets the latest 1 day(s).
| Time | Temp. | Humidity | Pressure | Rain* | Wind** | Luminosity | Snow |
|---|---|---|---|---|---|---|---|
| 1778037977 | 13.89° C | 65% | 1019.3 hPa | 0 mm | - | 0 W/m² | - |
| 1778037674 | 13.89° C | 64% | 1018.7 hPa | 0 mm | - | 0 W/m² | - |
| 1778037371 | 13.89° C | 64% | 1018.6 hPa | 0 mm | - | 0 W/m² | - |
| 1778037068 | 14.44° C | 63% | 1018.9 hPa | 0 mm | - | 0 W/m² | - |
| 1778036767 | 14.44° C | 63% | 1018.5 hPa | 0 mm | - | 0 W/m² | - |
| 1778035856 | 14.44° C | 62% | 1018.3 hPa | 0 mm | - | 0 W/m² | - |
| 1778035554 | 14.44° C | 61% | 1018.1 hPa | 0 mm | - | 0 W/m² | - |
| 1778034946 | 14.44° C | 61% | 1017.9 hPa | 0 mm | - | 1 W/m² | - |
| 1778034644 | 14.44° C | 61% | 1018 hPa | 0 mm | - | 3 W/m² | - |
| 1778034039 | 14.44° C | 60% | 1017.8 hPa | 0 mm | - | 12 W/m² | - |
| 1778033736 | 15° C | 60% | 1017.9 hPa | 0 mm | - | 17 W/m² | - |
| 1778033433 | 15° C | 60% | 1017.7 hPa | 0 mm | - | 21 W/m² | - |
| 1778033131 | 15° C | 60% | 1018 hPa | 0 mm | - | 26 W/m² | - |
| 1778032828 | 15° C | 60% | 1017.6 hPa | 0 mm | - | 28 W/m² | - |
| 1778032525 | 15° C | 59% | 1017.8 hPa | 0 mm | - | 33 W/m² | - |
| 1778032222 | 15° C | 58% | 1017.6 hPa | 0 mm | - | 48 W/m² | - |
| 1778031010 | 15.56° C | 57% | 1017.5 hPa | 0 mm | - | 109 W/m² | - |
| 1778030706 | 16.11° C | 57% | 1017.4 hPa | 0 mm | - | 81 W/m² | - |
| 1778029496 | 16.11° C | 55% | 1017.3 hPa | 0 mm | - | 182 W/m² | - |
| 1778028283 | 16.11° C | 54% | 1017.3 hPa | 0 mm | - | 216 W/m² | - |
| 1778027067 | 16.67° C | 54% | 1016.9 hPa | 0 mm | - | 292 W/m² | - |
| 1778026763 | 16.67° C | 54% | 1017.2 hPa | 0 mm | - | 311 W/m² | - |
| 1778026461 | 16.67° C | 53% | 1016.8 hPa | 0 mm | - | 354 W/m² | - |
| 1778026158 | 16.67° C | 52% | 1016.9 hPa | 0 mm | - | 388 W/m² | - |
| 1778024039 | 17.22° C | 53% | 1016.7 hPa | 0 mm | - | 491 W/m² | - |
* Rain latest hour (hover to see other rain measurements)
** Current wind speed in m/s (hover to see current wind gust speed)